This demonstration page uses our WeatherBlox Daily Observations layout. Learn more.

40.92945, -100.16068

Hourly Observations for May 13, 2016

Temp ( °F °C ) Dew Point ( °F °C ) Humidity (%) Winds ( mph kmh ) Pressure ( in mb ) Visibility ( mi km ) Precip ( " mm )
12:15 am 00:15 Clear 50 10.2 42 5.5 73 73 SSE 9 15 30.12 1020 10 16.0934 N/A
12:35 am 00:35 Clear 52 10.9 43 6 72 72 S 7 11 30.09 1019 10 16.0934 N/A
12:55 am 00:55 Clear 51 10.4 43 6.3 76 76 S 8 13 30.12 1020 10 16.0934 N/A
1:15 am 01:15 Clear 51 10.5 44 6.7 78 78 S 9 15 30.12 1020 10 16.0934 N/A
1:35 am 01:35 Clear 52 11 45 7 77 77 S 8 13 30.06 1018 10 16.0934 N/A
1:55 am 01:55 Clear 53 11.6 45 7.4 76 76 S 12 19 30.06 1018 10 16.0934 N/A
2:15 am 02:15 Clear 54 12 46 7.5 74 74 S 9 15 30.06 1018 10 16.0934 N/A
2:35 am 02:35 Clear 53 11.5 45 7.1 75 75 S 9 15 30.06 1018 10 16.0934 N/A
2:55 am 02:55 Clear 54 12 45 7.2 73 73 S 10 17 30.03 1017 10 16.0934 N/A
3:15 am 03:15 Clear 54 12 45 7.2 73 73 S 10 17 30.03 1017 10 16.0934 N/A
3:35 am 03:35 Clear 54 12 45 7.1 72 72 S 9 15 30.03 1017 10 16.0934 N/A
3:55 am 03:55 Clear 54 12 45 7.1 72 72 S 10 17 30.03 1017 10 16.0934 N/A
4:15 am 04:15 Clear 53 11.8 45 7 73 73 SSE 9 15 30.03 1017 10 16.0934 N/A
4:35 am 04:35 Clear 52 11.2 45 7.1 76 76 S 8 13 30.03 1017 10 16.0934 N/A
4:55 am 04:55 Clear 51 10.3 44 6.8 79 79 SSE 5 7 30.03 1017 10 16.0934 N/A
5:15 am 05:15 Clear 50 10.1 44 6.7 80 80 S 3 6 30 1016 10 16.0934 N/A
5:35 am 05:35 Clear 52 11.1 45 7.3 78 78 SSW 7 11 30 1016 10 16.0934 N/A
5:55 am 05:55 Clear 55 12.6 46 7.7 72 72 SW 8 13 30 1016 10 16.0934 N/A
6:15 am 06:15 Clear 54 12.3 46 7.5 73 73 WSW 3 6 30 1016 10 16.0934 N/A
6:35 am 06:35 Sunny 54 12.1 46 7.5 74 74 WSW 3 6 30 1016 10 16.0934 N/A
6:55 am 06:55 Sunny 55 12.8 46 7.8 72 72 WSW 6 9 30 1016 10 16.0934 N/A
7:15 am 07:15 Sunny 56 13.6 47 8.4 71 71 WSW 7 11 29.97 1015 10 16.0934 N/A
7:35 am 07:35 Sunny 58 14.3 48 8.7 69 69 WSW 7 11 29.94 1014 10 16.0934 N/A
7:55 am 07:55 Sunny 59 15 49 9.2 68 68 WSW 7 11 29.94 1014 10 16.0934 N/A
8:15 am 08:15 Sunny 60 15.6 49 9.5 67 67 W 9 15 29.94 1014 10 16.0934 N/A
8:35 am 08:35 Sunny 60 15.7 50 9.9 69 69 WNW 13 20 29.97 1015 10 16.0934 N/A
8:55 am 08:55 Sunny 61 16 51 10.3 69 69 W 14 22 29.97 1015 10 16.0934 N/A
9:15 am 09:15 Sunny 63 17.1 51 10.4 65 65 WNW 17 28 29.94 1014 10 16.0934 N/A
9:35 am 09:35 Sunny 63 17.1 48 8.7 58 58 NW 25 41 29.97 1015 10 16.0934 N/A
9:55 am 09:55 Sunny 62 16.8 46 7.9 56 56 NNW 23 37 29.97 1015 10 16.0934 N/A
10:15 am 10:15 Sunny 62 16.4 45 7.3 55 55 N 25 41 30 1016 10 16.0934 N/A
10:35 am 10:35 Hazy 57 14.1 44 6.5 60 60 NNW 28 44 30.03 1017 5 8.0467 N/A
10:55 am 10:55 Sunny 56 13.5 44 6.4 62 62 N 26 43 30.09 1019 10 16.0934 N/A
11:15 am 11:15 Sunny 55 12.8 41 4.9 59 59 N 29 46 30.09 1019 7 11.26538 N/A
11:35 am 11:35 Sunny 55 13 41 5.1 59 59 N 31 50 30.12 1020 10 16.0934 N/A
11:55 am 11:55 Sunny 55 12.9 40 4.6 57 57 N 29 46 30.12 1020 10 16.0934 N/A
12:15 pm 12:15 Sunny 55 13 41 4.8 58 58 N 30 48 30.15 1021 10 16.0934 N/A
12:35 pm 12:35 Partly Cloudy 53 11.8 40 4.2 60 60 NNW 33 54 30.15 1021 7 11.26538 N/A
12:55 pm 12:55 Mostly Cloudy 51 10.7 39 3.9 63 63 N 26 43 30.21 1023 10 16.0934 N/A
1:15 pm 13:15 Mostly Cloudy 51 10.7 39 3.8 63 63 N 24 39 30.21 1023 10 16.0934 N/A
1:35 pm 13:35 Cloudy 51 10.8 38 3.5 61 61 N 26 43 30.21 1023 10 16.0934 N/A
1:55 pm 13:55 Cloudy 52 11.1 38 3.5 60 60 N 24 39 30.21 1023 10 16.0934 N/A
2:15 pm 14:15 Mostly Cloudy 54 12 38 3.6 57 57 N 24 39 30.21 1023 10 16.0934 N/A
2:35 pm 14:35 Partly Cloudy 55 12.7 39 3.7 55 55 N 25 41 30.21 1023 10 16.0934 N/A
2:55 pm 14:55 Sunny 55 12.8 38 3.2 52 52 N 22 35 30.21 1023 10 16.0934 N/A
3:15 pm 15:15 Sunny 55 13 36 2 47 47 N 21 33 30.21 1023 10 16.0934 N/A
3:35 pm 15:35 Sunny 56 13.5 35 1.9 46 46 N 25 41 30.21 1023 10 16.0934 N/A
3:55 pm 15:55 Sunny 57 13.8 35 1.9 45 45 N 25 41 30.21 1023 10 16.0934 N/A
4:15 pm 16:15 Sunny 56 13.5 35 1.8 45 45 N 20 31 30.21 1023 10 16.0934 N/A
4:35 pm 16:35 Sunny 57 13.9 36 2.2 45 45 N 22 35 30.21 1023 10 16.0934 N/A
4:55 pm 16:55 Sunny 57 14 37 2.6 46 46 NNW 22 35 30.21 1023 10 16.0934 N/A
5:15 pm 17:15 Partly Cloudy 57 14.1 36 2.3 45 45 N 20 31 30.21 1023 10 16.0934 N/A
5:35 pm 17:35 Partly Cloudy 57 14 36 2.4 46 46 N 18 30 30.21 1023 10 16.0934 N/A
5:55 pm 17:55 Sunny 58 14.2 36 2.1 44 44 N 22 35 30.21 1023 10 16.0934 N/A
6:15 pm 18:15 Sunny 57 13.7 35 1.7 44 44 N 21 33 30.21 1023 10 16.0934 N/A
6:35 pm 18:35 Sunny 56 13.5 35 1.6 45 45 N 20 31 30.21 1023 10 16.0934 N/A
6:55 pm 18:55 Sunny 55 12.8 35 1.7 47 47 N 18 30 30.24 1024 10 16.0934 N/A
7:15 pm 19:15 Sunny 55 12.5 34 0.9 45 45 N 22 35 30.24 1024 10 16.0934 N/A
7:35 pm 19:35 Sunny 54 12 33 0.7 46 46 N 21 33 30.27 1025 10 16.0934 N/A
7:55 pm 19:55 Sunny 53 11.5 33 0.3 46 46 N 16 26 30.27 1025 10 16.0934 N/A
8:15 pm 20:15 Sunny 52 11 32 0.1 47 47 N 17 28 30.27 1025 10 16.0934 N/A
8:35 pm 20:35 Sunny 51 10.3 33 0.4 51 51 N 15 24 30.27 1025 10 16.0934 N/A
8:55 pm 20:55 Clear 49 9.3 33 0.8 56 56 N 9 15 30.27 1025 10 16.0934 N/A
9:15 pm 21:15 Clear 47 8.5 34 1.1 60 60 N 10 17 30.3 1026 10 16.0934 N/A
9:35 pm 21:35 Clear 47 8.2 34 1 61 61 N 8 13 30.33 1027 10 16.0934 N/A
9:55 pm 21:55 Clear 46 7.8 33 0.4 60 60 N 9 15 30.33 1027 10 16.0934 N/A
10:15 pm 22:15 Clear 45 7.1 33 0.6 64 64 N 12 19 30.36 1028 10 16.0934 N/A
10:35 pm 22:35 Clear 44 6.9 32 0.1 62 62 N 9 15 30.36 1028 10 16.0934 N/A
10:55 pm 22:55 Clear 44 6.5 32 -0.1 63 63 NNE 10 17 30.39 1029 10 16.0934 N/A
11:15 pm 23:15 Clear 43 6.1 31 -0.6 63 63 N 12 19 30.39 1029 10 16.0934 N/A
11:35 pm 23:35 Clear 41 5.2 32 0 69 69 N 8 13 30.39 1029 10 16.0934 N/A
11:55 pm 23:55 Clear 42 5.6 31 -0.5 65 65 N 13 20 30.39 1029 10 16.0934 N/A

Powered by AerisWeather